Location: Julian California
(33.0790°N, 116.6010°W)
Time: 02:26:50
(UTC-07:00)

Cosmos 1386 Rocket - Pass Details

Date: 14 June 2018
Orbit: 930 x 1006 km, 83.0° (Epoch: 21 October)

Event Time Altitude Azimuth Distance (km) Brightness Sun altitude
Rises 23:28:43 0° 354° (N) 3,637 8.6 -30.6°
Reaches altitude 10° 23:31:14 10° 354° (N) 2,678 7.6 -30.8°
Enters shadow 23:36:45 74° 1° (N) 977 4.5 -31.2°
